Location: Franzen
(48.6167°N, 15.3833°E)
Time: 13:44:49
(UTC+00:00)

Cosmos 1655 Rocket - Pass Details

Date: 07 August 2021
Orbit: 969 x 1007 km, 82.9° (Epoch: 25 September)

Event Time Altitude Azimuth Distance (km) Brightness Sun altitude
Exits shadow 19:31:16 - 159° (SSE) 3,013 6.0 -9.8°
Reaches altitude 10° 19:31:57 10° 157° (SSE) 2,772 5.8 -9.9°
Maximum altitude 19:37:52 42° 89° (E) 1,406 4.5 -10.7°
Drops below altitude 10° 19:43:49 10° 21° (NNE) 2,795 6.7 -11.4°
Sets 19:46:29 0° 15° (NNE) 3,749 7.5 -11.8°
